sat.trackr.live / text

‹ back to catalog

SMDC ONE 2.4

NORAD 39469 · 2013-072H

PAYLOAD ACTIVE UNKNOWN

§ Identity

Operator
Country
US
Launch date
2013-12-06
Launch site
AFWTR
Launch vehicle
Mass (kg)
RCS (m²)

External: N2YO · Heavens-Above · Gunter

§ Orbital elements

Epoch: 2026-05-25T03:34:30.086112Z

Period
94.88 min
Inclination
120.4893°
Eccentricity
0.0141909
Mean motion
15.17682606 rev/d
Perigee alt
415.1 km
Apogee alt
610.6 km
Semi-major
6,891.0 km
B*
3.5928e-4
RAAN
263.1710°
Arg perigee
354.2785°
Mean anomaly
5.6668°
Rev number
11,433

§ Raw data

SMDC ONE 2.41 39469U 13072H   26145.14895933  .00009088  00000+0  35928-3 0  99982 39469 120.4893 263.1710 0141909 354.2785   5.6668 15.17682606114333

JSON: /api/v1/satellites/39469 · /tle

For live sub-satellite position, see the globe view (requires WebGL).

§ Visibility from observer

Set your observer location to see the next 7 days of passes ≥ 10°. The values pass through the URL so the page stays shareable.

No JS? Fill the form by hand. The geolocation button needs JavaScript.